DMSP 5D-2 F13 DEB, 40499

Orbit data source: Space-Track

DMSP 5D-2 F13 DEB, 40499 is space debris in SSO originally from a launch on Fri, 24 Mar 1995 UTC launched from the Air Force Western Test Range (AFWTR). Debris objects in space refer to the collection of defunct objects orbiting the Earth. Examples of debris include non-operational satellites, rocket bodies, and fragments generated from explosions, collisions, or faulty payload assembly.

Loading next visibility...
Identifier
40499, 1995-015CN
Orbit
SSO
Country
Flag of USUS
Related business
Manufacturer
Unknown
Mission
Spacecraft
Bus & Motor
Unknown
Mass
Unknown
Launch date (UTC)
1995-03-24 (31 years ago)
Launch vehicle
Unknown
Launch site
Air Force Western Test Range (AFWTR)
Object type
Payload
Rocket body
Debris
Shape & HBR
Unknown shape, 0.1 m
Radar Cross Section
Small (<0.1 m²)

Expand to show TLE details & history
Last TLE update: 3 days ago

TLE from 3 days ago
0 DMSP 5D-2 F13 DEB
1 40499U 95015CN  25302.36725769  .00006850  00000-0  22777-2 0  9999
2 40499  98.7034 333.1946 0008683 194.5391 165.5547 14.37983301552009
Epoch: 2025-10-29T08:48Z
TLE epoch observation values (Epoch: 2025-10-29T08:48:51.064Z)
Latitude
-0.00001°
Longitude
163.04042°
Altitude
774.117 km
Speed
7.464 km/s
True Right ascension
22h 12m 46s
True Declination
0° 00' 00"
Sunlit
Object was in full shadow at epoch
Visualization orbit readout
Latitude
Unknown
Longitude
Unknown
Altitude
Unknown
Speed
Unknown
Apparent Right ascension
Unknown
Apparent Declination
Unknown
Sunlit
N/A
Visualization observer readout
Local Sidereal Time
19:51:53
Azimuth
Unknown
Elevation
Unknown
Doppler factor
Unknown
Orbital elements
Apogee altitude
768.504 km
Perigee altitude
756.104 km
Semi-major axis
7,140.441 km
Eccentricity
0.00087
Inclination
98.7034°
RAAN
333.1946°
Arg. of periapsis
194.5391°
True anomaly
165.57949°
Mean anomaly
165.5547°
Eccentric anomaly
165.5671°
Mean motion
3.59713 °/min
Orbital period
100.08 mins
BSTAR
0.0022777

Documentation

Showing up to 5 results
|